Погода в Приморске

Россия / Красноярский край     55°12′15″N   91°53′34″E
темп.,
°C
ветер,
м/с
пор.,
м/с
влажн.,
%
обл.,
%
осадки,
мм/ч
давл.,
гПа
погр.,
м
28 сентября, вт
вт2801:00+3зюз448564 0.4 1023454
04:00+2юз348755 0.0 1023436
07:00+1зюз228582 0.0 1023474
10:00+3зюз238094 0.1 1022539
13:00+4зюз227292 0.2 1022653
16:00+5зюз2160100 0.1 1021952
19:00+4юз216281 0.1 1022611
22:00+4юз016084 0.0 1021660
29 сентября, ср
ср2901:00+3всв227222 0.0 1021129
04:00+1всв22785 0.0 1021154
07:00+1всв23795 0.0 1020161
10:00+3всв34675 0.0 1019405
13:00+6всв33553 0.0 1017598
16:00+8св54513 0.0 1015600
19:00+6всв57706 0.0 1015281
22:00+4в337695 0.0 1015126
30 сентября, чт
чт3001:00+4всв2374100 0.0 1015154
04:00+4в128098 0.0 1014156
07:00+5в1283100 0.0 1013105
10:00+7юв1275100 0.0 1013301
13:00+10юз466655 0.0 1012930
16:00+10юз4569100 0.1 1011551
19:00+8зюз5786100 1.9 1012536
22:00+5сз3487100 1.8 1013572
1 октября, пт
пт101:00+4ю2389100 2.4 1012341
04:00+4зюз61076100 0.1 1013766
07:00+3зюз477892 0.1 1014659
10:00+5юз6769100 0.1 10131113
13:00+6юз6759100 0.4 10131476
16:00+7юз5659100 0.4 10131290
19:00+5зюз4575100 0.9 1014605
22:00+4юз347794 0.3 1015463
2 октября, сб
сб201:00+3ю348359 0.3 1016146
04:00+4юз597394 0.0 1017615
07:00+3ююз478169 0.1 1017307
10:00+5юз466972 0.2 1018802
13:00+7юз5555100 0.2 10171345
16:00+7юз4551100 0.1 10171353
19:00+6ююз2456100 0.2 1018323
22:00+5ю2363100 0.0 1019127